sat.trackr.live / text

‹ back to catalog

RESOURCESAT-2A

NORAD 41877 · 2016-074A

PAYLOAD ACTIVE UNKNOWN

§ Identity

Operator
Country
IND
Launch date
2016-12-07
Launch site
SRILR
Launch vehicle
Mass (kg)
RCS (m²)
4.16

Purposes: earth_obs

External: N2YO · Heavens-Above · Gunter

§ Orbital elements

Epoch: 2026-05-25T04:43:01.334208Z

Period
101.29 min
Inclination
98.7524°
Eccentricity
0.0003029
Mean motion
14.21607390 rev/d
Perigee alt
817.7 km
Apogee alt
822.1 km
Semi-major
7,198.1 km
B*
1.1854e-5
RAAN
218.8880°
Arg perigee
128.1943°
Mean anomaly
231.9508°
Rev number
49,103

§ Raw data

RESOURCESAT-2A1 41877U 16074A   26145.19654322 -.00000018  00000+0  11854-4 0  99972 41877  98.7524 218.8880 0003029 128.1943 231.9508 14.21607390491039

JSON: /api/v1/satellites/41877 · /tle

For live sub-satellite position, see the globe view (requires WebGL).

§ Visibility from observer

Set your observer location to see the next 7 days of passes ≥ 10°. The values pass through the URL so the page stays shareable.

No JS? Fill the form by hand. The geolocation button needs JavaScript.

§ Radio — SatNOGS DB

ModeDescriptionDownlinkUplink
BPSK S-band telemetry 2.250 GHz

1 transmitter · refreshed weekly from db.satnogs.org